User: anonymous   Login
Location: Macksville High School
(37.9611°N, 99.9654°W)
Time: 08:26:32
(UTC+00:00)
Language:

Cosmos 1763 Rocket - Orbit

View from above orbital plane
View from above orbital plane
View from above satellite
View from above satellite

Ground track
Ground track

The orbit data is extracted from the following two-line orbital elements,

1 16864U 86052B   21101.88027656  .00000037  00000-0  19877-4 0  9999
2 16864  74.0313  33.3677 0032549 149.6297 210.6753 14.40624252823495
Epoch (UTC): 11 April 2021 21:07:35
Eccentricity: 0.0032549
inclination: 74.0313°
perigee height: 733 km
apogee height: 779 km
right ascension of ascending node: 33.3677°
argument of perigee: 149.6297°
revolutions per day: 14.40624252
mean anomaly at epoch: 210.6753°
orbit number at epoch: 82349

The dashed part of the orbit path shows where the satellite is in the earth's shadow,  

DLR